Location: Wiesbaden
(50.0830°N, 8.2500°E)
Time: 05:17:24
(UTC+02:00)

ISS - Pass Details

Date: 27 March 2020
Orbit: 417 x 423 km, 51.6° (Epoch: 29 March)

Event Time Altitude Azimuth Distance (km) Brightness Sun altitude
Rises 22:16:55 0° 287° (WNW) 2,364 0.9 -29.5°
Reaches altitude 10° 22:19:03 10° 282° (WNW) 1,499 -0.4 -29.7°
Enters shadow 22:19:07 10° 282° (WNW) 1,473 -0.4 -29.7°
